| time (UTC) | temp C | wind direction | speed KPH | gust KPH | rain 1hr cm | rain 24hr cm | rain mn cm | humidity % | barometer mb |
| 20260505041539 | 13 | 0 | 0.0 | 6.4 | 0.00 | 0.10 | 0.00 | 65 | 1009.9 |
| 20260505040042 | 13 | 0 | 0.0 | 12.9 | 0.00 | 0.10 | 0.00 | 64 | 1009.7 |
| 20260505034536 | 13 | 0 | 0.0 | 11.3 | 0.00 | 0.10 | 0.10 | 63 | 1009.7 |
| 20260505033044 | 13 | 0 | 0.0 | 6.4 | 0.00 | 0.10 | 0.10 | 62 | 1009.8 |
| 20260505031539 | 13 | 122 | 0.0 | 9.7 | 0.00 | 0.10 | 0.10 | 61 | 1009.6 |
| 20260505030038 | 14 | 0 | 0.0 | 6.4 | 0.00 | 0.10 | 0.10 | 60 | 1009.7 |
| 20260505024536 | 14 | 0 | 0.0 | 6.4 | 0.00 | 0.10 | 0.10 | 58 | 1009.8 |
| 20260505023037 | 15 | 0 | 0.0 | 8.0 | 0.03 | 0.10 | 0.10 | 57 | 1009.9 |
| 20260505021537 | 15 | 0 | 0.0 | 4.8 | 0.05 | 0.10 | 0.10 | 55 | 1009.8 |
| 20260505020038 | 15 | 0 | 0.0 | 9.7 | 0.10 | 0.10 | 0.10 | 54 | 1009.7 |
| 20260505014539 | 16 | 0 | 1.6 | 9.7 | 0.10 | 0.10 | 0.10 | 54 | 1009.7 |
| 20260505013038 | 16 | 148 | 3.2 | 16.1 | 0.08 | 0.08 | 0.08 | 53 | 1009.5 |
| 20260505011548 | 16 | 0 | 0.0 | 12.9 | 0.05 | 0.05 | 0.05 | 52 | 1009.2 |
| 20260505010039 | 16 | 0 | 0.0 | 16.1 | 0.00 | 0.00 | 0.00 | 52 | 1009.0 |
| 20260505004542 | 17 | 153 | 0.0 | 11.3 | 0.00 | 0.00 | 0.00 | 50 | 1008.6 |
| 20260505003037 | 17 | 155 | 1.6 | 16.1 | 0.00 | 0.00 | 0.00 | 49 | 1008.2 |
| 20260505001537 | 17 | 180 | 1.6 | 17.7 | 0.00 | 0.00 | 0.00 | 48 | 1007.7 |
| 20260505000036 | 18 | 0 | 1.6 | 12.9 | 0.00 | 0.00 | 0.00 | 46 | 1007.5 |
| 20260504234544 | 18 | 237 | 0.0 | 14.5 | 0.00 | 0.00 | 0.00 | 44 | 1007.2 |
| 20260504233043 | 19 | 0 | 3.2 | 9.7 | 0.00 | 0.00 | 0.00 | 42 | 1006.9 |
| 20260504231539 | 20 | 198 | 3.2 | 16.1 | 0.00 | 0.00 | 0.00 | 40 | 1006.5 |
| 20260504230037 | 21 | 0 | 0.0 | 4.8 | 0.00 | 0.00 | 0.00 | 37 | 1006.1 |
| 20260504224537 | 21 | 0 | 0.0 | 11.3 | 0.00 | 0.00 | 0.00 | 35 | 1006.0 |
| 20260504223039 | 21 | 101 | 1.6 | 11.3 | 0.00 | 0.00 | 0.00 | 36 | 1006.0 |
| 20260504221540 | 21 | 0 | 0.0 | 12.9 | 0.00 | 0.00 | 0.00 | 35 | 1006.0 |
| 20260504220041 | 22 | 0 | 1.6 | 16.1 | 0.00 | 0.00 | 0.00 | 34 | 1005.9 |
| 20260504214552 | 22 | 134 | 0.0 | 6.4 | 0.00 | 0.00 | 0.00 | 35 | 1005.8 |
| 20260504213049 | 22 | 129 | 3.2 | 16.1 | 0.00 | 0.00 | 0.00 | 33 | 1005.8 |
| 20260504211538 | 22 | 58 | 3.2 | 19.3 | 0.00 | 0.00 | 0.00 | 33 | 1005.8 |
| 20260504210038 | 22 | 88 | 4.8 | 17.7 | 0.00 | 0.00 | 0.00 | 33 | 1006.0 |
| 20260504204537 | 22 | 227 | 3.2 | 16.1 | 0.00 | 0.00 | 0.00 | 31 | 1005.9 |
| 20260504203036 | 23 | 53 | 0.0 | 19.3 | 0.00 | 0.00 | 0.00 | 33 | 1005.9 |
| 20260504201539 | 23 | 203 | 3.2 | 12.9 | 0.00 | 0.00 | 0.00 | 31 | 1006.0 |
| 20260504200043 | 23 | 105 | 3.2 | 14.5 | 0.00 | 0.00 | 0.00 | 29 | 1006.0 |
| 20260504194542 | 23 | 0 | 1.6 | 20.9 | 0.00 | 0.00 | 0.00 | 29 | 1006.2 |
| 20260504193037 | 23 | 245 | 6.4 | 24.1 | 0.00 | 0.00 | 0.00 | 30 | 1006.0 |
| 20260504191550 | 23 | 59 | 4.8 | 20.9 | 0.00 | 0.00 | 0.00 | 31 | 1006.1 |
| 20260504190044 | 22 | 63 | 4.8 | 16.1 | 0.00 | 0.00 | 0.00 | 34 | 1006.4 |
| 20260504184551 | 22 | 74 | 6.4 | 22.5 | 0.00 | 0.00 | 0.00 | 31 | 1006.5 |
| 20260504183047 | 22 | 0 | 4.8 | 22.5 | 0.00 | 0.00 | 0.00 | 30 | 1006.5 |
| 20260504181544 | 22 | 5 | 4.8 | 14.5 | 0.00 | 0.00 | 0.00 | 32 | 1006.5 |
| 20260504180037 | 22 | 321 | 4.8 | 25.7 | 0.00 | 0.00 | 0.00 | 34 | 1006.8 |
| 20260504174541 | 22 | 122 | 3.2 | 17.7 | 0.00 | 0.00 | 0.00 | 36 | 1006.8 |
| 20260504173040 | 21 | 130 | 4.8 | 17.7 | 0.00 | 0.00 | 0.00 | 36 | 1006.9 |
| 20260504171539 | 21 | 169 | 6.4 | 19.3 | 0.00 | 0.00 | 0.00 | 35 | 1007.1 |
| 20260504081544 | 6 | 0 | 0.0 | 0.0 | 0.00 | 0.00 | 0.00 | 74 | 1009.7 |